Location: Saint Francis Village
(32.6154°N, 97.4559°W)
Time: 00:39:02
(UTC+00:00)

CAS-4A - Visible Passes

Search period start: 06 December 2024 00:00
Search period end: 16 December 2024 00:00
Orbit: 434 x 452 km, 43.0° (Epoch: 05 December)

Date Brightness Start Highest point End Pass type
(mag) Time Alt. Az. Time Alt. Az. Time Alt. Az.
06 Dec ? 01:28:31 10° SW 01:29:54 21° SSW 01:29:54 21° SSW visible
07 Dec ? 00:48:00 10° SSW 00:51:11 34° SE 00:51:24 33° SE visible
08 Dec ? 00:07:29 10° SSW 00:10:26 25° SE 00:12:44 13° E visible
08 Dec ? 01:44:58 10° W 01:46:10 19° W 01:46:10 19° W visible
09 Dec ? 01:03:55 10° WSW 01:07:22 55° NNW 01:07:22 55° NNW visible
10 Dec ? 00:22:51 10° WSW 00:26:20 74° NNW 00:28:25 22° NE visible
11 Dec ? 01:20:43 10° WNW 01:22:44 20° NW 01:22:44 20° NW visible
12 Dec ? 00:39:16 10° WNW 00:42:15 25° NNW 00:43:31 20° NNE visible
12 Dec ? 23:57:45 10° W 00:00:54 30° NNW 00:04:02 10° NE visible
13 Dec ? 01:37:30 10° NW 01:37:35 10° NW 01:37:35 10° NW visible
14 Dec ? 00:55:53 10° NW 00:58:05 16° N 00:58:09 16° N visible
15 Dec ? 00:14:08 10° NW 00:16:30 17° N 00:18:39 11° NNE visible
